This is the latest recevied weather packets stored in our database for station/object OE-11152. If no packets are shown the sender has not sent any weather packets the latest 10 day(s).
| Time | Temp. | Humidity | Pressure | Rain* | Wind** | Luminosity | Snow |
|---|---|---|---|---|---|---|---|
| 1787901918 | 21.11° C | 80% | 1010.1 hPa | 0 mm | - | 216 W/m² | - |
| 1787901090 | 20.56° C | 80% | 1010.3 hPa | 0 mm | - | 196 W/m² | - |
| 1787900717 | 20.56° C | 78% | 1010.3 hPa | 0 mm | - | 182 W/m² | - |
| 1787900118 | 20.56° C | 78% | 1010.6 hPa | 0 mm | - | 223 W/m² | - |
| 1787899291 | 20.56° C | 78% | 1010.7 hPa | 0 mm | - | 229 W/m² | - |
| 1787898917 | 20° C | 78% | 1010.8 hPa | 0 mm | - | 202 W/m² | - |
| 1787898318 | 20° C | 78% | 1011.1 hPa | 0 mm | - | 169 W/m² | - |
| 1787897490 | 19.44° C | 80% | 1011.1 hPa | 0 mm | - | 148 W/m² | - |
| 1787897117 | 19.44° C | 83% | 1010.9 hPa | 0 mm | - | 115 W/m² | - |
| 1787896517 | 19.44° C | 84% | 1011 hPa | 0 mm | - | 101 W/m² | - |
| 1787895690 | 18.89° C | 88% | 1010.9 hPa | 0 mm | - | 81 W/m² | - |
| 1787895318 | 18.33° C | 89% | 1010.9 hPa | 0 mm | - | 47 W/m² | - |
| 1787894718 | 18.33° C | 89% | 1011 hPa | 0 mm | - | 27 W/m² | - |
| 1787893891 | 17.78° C | 88% | 1011.1 hPa | 0 mm | - | 13 W/m² | - |
| 1787893518 | 17.78° C | 88% | 1011.1 hPa | 0 mm | - | 7 W/m² | - |
| 1787892918 | 17.78° C | 88% | 1011 hPa | 0 mm | - | 7 W/m² | - |
| 1787892090 | 17.78° C | 88% | 1011.1 hPa | 0 mm | - | 0 W/m² | - |
| 1787891717 | 17.78° C | 88% | 1011 hPa | 0 mm | - | 0 W/m² | - |
| 1787891118 | 17.78° C | 89% | 1011 hPa | 0 mm | - | 0 W/m² | - |
| 1787890290 | 17.78° C | 89% | 1011.2 hPa | 0 mm | - | 0 W/m² | - |
| 1787889918 | 17.78° C | 88% | 1011.5 hPa | 0 mm | - | 0 W/m² | - |
| 1787889318 | 17.78° C | 87% | 1011.5 hPa | 0 mm | - | 0 W/m² | - |
| 1787888717 | 17.78° C | 87% | 1011.5 hPa | 0 mm | - | 0 W/m² | - |
| 1787888117 | 18.33° C | 88% | 1011.5 hPa | 0 mm | - | 0 W/m² | - |
| 1787887517 | 18.33° C | 89% | 1011.4 hPa | 0 mm | - | 0 W/m² | - |
* Rain latest hour (hover to see other rain measurements)
** Current wind speed in m/s (hover to see current wind gust speed)